| time (UTC) | temp F | wind direction | speed knots | gust knots | rain 1hr in | rain 24hr in | rain mn in | humidity % | barometer mb |
| 20260509211519 | 93 | 103 | 0.0 | 1.7 | 0.00 | 0.00 | 0.00 | 35 | 1008.4 |
| 20260509210559 | 93 | 80 | 0.9 | 4.3 | 0.00 | 0.00 | 0.00 | 37 | 1008.5 |
| 20260509205519 | 94 | 62 | 0.0 | 2.6 | 0.00 | 0.00 | 0.00 | 36 | 1008.6 |
| 20260509204539 | 92 | 96 | 0.9 | 3.5 | 0.00 | 0.00 | 0.00 | 38 | 1008.8 |
| 20260509203519 | 92 | 154 | 0.9 | 4.3 | 0.00 | 0.00 | 0.00 | 38 | 1009.0 |
| 20260509202519 | 92 | 36 | 0.9 | 4.3 | 0.00 | 0.01 | 0.00 | 39 | 1009.1 |
| 20260509201518 | 93 | 50 | 0.9 | 3.5 | 0.00 | 0.01 | 0.00 | 39 | 1009.2 |
| 20260509200539 | 91 | 220 | 0.0 | 4.3 | 0.00 | 0.04 | 0.00 | 40 | 1009.3 |
| 20260509195519 | 91 | 264 | 0.9 | 2.6 | 0.00 | 0.04 | 0.00 | 39 | 1009.3 |
| 20260509194518 | 90 | 65 | 0.9 | 3.5 | 0.00 | 0.04 | 0.00 | 40 | 1009.4 |
| 20260509193515 | 88 | 232 | 0.9 | 3.5 | 0.00 | 0.04 | 0.00 | 43 | 1009.5 |
| 20260509192519 | 89 | 274 | 1.7 | 6.1 | 0.00 | 0.04 | 0.00 | 44 | 1009.6 |
| 20260509191539 | 88 | 282 | 0.9 | 3.5 | 0.00 | 0.04 | 0.00 | 44 | 1009.6 |
| 20260509190518 | 87 | 214 | 1.7 | 4.3 | 0.00 | 0.04 | 0.00 | 44 | 1009.7 |
| 20260509185518 | 88 | 278 | 1.7 | 4.3 | 0.00 | 0.04 | 0.00 | 45 | 1009.9 |
| 20260509184519 | 88 | 258 | 2.6 | 5.2 | 0.00 | 0.04 | 0.00 | 45 | 1009.9 |
| 20260509183516 | 88 | 256 | 0.9 | 5.2 | 0.00 | 0.04 | 0.00 | 44 | 1009.9 |
| 20260509182516 | 88 | 278 | 0.9 | 4.3 | 0.00 | 0.04 | 0.00 | 44 | 1010.1 |
| 20260509181517 | 87 | 271 | 1.7 | 4.3 | 0.00 | 0.04 | 0.00 | 45 | 1010.2 |
| 20260509180517 | 87 | 266 | 1.7 | 6.1 | 0.00 | 0.04 | 0.00 | 45 | 1010.3 |
| 20260509175517 | 86 | 253 | 1.7 | 4.3 | 0.00 | 0.04 | 0.00 | 46 | 1010.3 |
| 20260509174537 | 88 | 261 | 1.7 | 4.3 | 0.00 | 0.04 | 0.00 | 45 | 1010.4 |
| 20260509173517 | 87 | 104 | 0.9 | 4.3 | 0.00 | 0.04 | 0.00 | 45 | 1010.5 |
| 20260509172517 | 86 | 275 | 0.9 | 4.3 | 0.00 | 0.04 | 0.00 | 48 | 1010.5 |
| 20260509171518 | 86 | 270 | 0.9 | 4.3 | 0.00 | 0.04 | 0.00 | 47 | 1010.6 |
| 20260509170518 | 85 | 274 | 0.9 | 3.5 | 0.00 | 0.04 | 0.00 | 48 | 1010.8 |
| 20260509165538 | 85 | 311 | 1.7 | 5.2 | 0.00 | 0.04 | 0.00 | 49 | 1010.8 |
| 20260509164539 | 84 | 333 | 1.7 | 5.2 | 0.00 | 0.04 | 0.00 | 49 | 1010.9 |
| 20260509163519 | 84 | 290 | 0.9 | 5.2 | 0.00 | 0.04 | 0.00 | 51 | 1010.9 |
| 20260509162516 | 84 | 268 | 0.9 | 4.3 | 0.00 | 0.04 | 0.00 | 52 | 1010.9 |
| 20260509161519 | 83 | 284 | 0.9 | 5.2 | 0.00 | 0.04 | 0.00 | 53 | 1010.8 |
| 20260509160516 | 83 | 329 | 0.9 | 2.6 | 0.00 | 0.04 | 0.00 | 52 | 1010.9 |
| 20260509155516 | 83 | 282 | 1.7 | 7.8 | 0.00 | 0.04 | 0.00 | 53 | 1010.8 |
| 20260509154516 | 82 | 218 | 0.9 | 2.6 | 0.00 | 0.04 | 0.00 | 55 | 1010.7 |
| 20260509153516 | 82 | 314 | 0.9 | 6.1 | 0.00 | 0.04 | 0.00 | 54 | 1010.7 |
| 20260509152516 | 82 | 344 | 0.9 | 3.5 | 0.00 | 0.04 | 0.00 | 54 | 1010.6 |
| 20260509151516 | 80 | 297 | 0.9 | 2.6 | 0.00 | 0.04 | 0.00 | 56 | 1010.6 |
| 20260509150516 | 80 | 286 | 1.7 | 6.1 | 0.00 | 0.04 | 0.00 | 57 | 1010.7 |
| 20260509145537 | 80 | 300 | 0.9 | 3.5 | 0.00 | 0.04 | 0.00 | 60 | 1010.8 |
| 20260509144517 | 79 | 310 | 0.9 | 4.3 | 0.00 | 0.04 | 0.00 | 64 | 1010.8 |
| 20260509143517 | 78 | 346 | 0.9 | 3.5 | 0.00 | 0.04 | 0.00 | 67 | 1010.9 |
| 20260509142517 | 78 | 308 | 0.9 | 2.6 | 0.00 | 0.04 | 0.00 | 69 | 1010.9 |
| 20260509141518 | 78 | 327 | 0.9 | 2.6 | 0.00 | 0.04 | 0.00 | 70 | 1011.0 |
| 20260509140518 | 76 | 274 | 0.9 | 3.5 | 0.00 | 0.04 | 0.00 | 74 | 1010.9 |
| 20260509135518 | 75 | 297 | 0.9 | 2.6 | 0.00 | 0.04 | 0.00 | 75 | 1010.8 |
| 20260509134518 | 74 | 281 | 0.0 | 2.6 | 0.00 | 0.04 | 0.00 | 78 | 1010.7 |
| 20260509133518 | 73 | 316 | 0.9 | 3.5 | 0.00 | 0.04 | 0.00 | 79 | 1010.8 |
| 20260509132518 | 73 | 298 | 0.9 | 3.5 | 0.00 | 0.04 | 0.00 | 79 | 1010.6 |
| 20260509131516 | 72 | 339 | 0.9 | 2.6 | 0.00 | 0.04 | 0.00 | 80 | 1010.6 |
| 20260509130515 | 71 | 339 | 0.0 | 1.7 | 0.00 | 0.04 | 0.00 | 82 | 1010.6 |
| 20260509125516 | 70 | 277 | 0.9 | 2.6 | 0.00 | 0.04 | 0.00 | 84 | 1010.7 |
| 20260509124537 | 69 | 270 | 0.9 | 4.3 | 0.00 | 0.04 | 0.00 | 85 | 1010.6 |
| 20260509123516 | 69 | 336 | 0.9 | 5.2 | 0.00 | 0.04 | 0.00 | 86 | 1010.6 |
| 20260509122517 | 69 | 20 | 0.9 | 2.6 | 0.00 | 0.04 | 0.00 | 86 | 1010.6 |
| 20260509121517 | 69 | 255 | 0.9 | 2.6 | 0.00 | 0.04 | 0.00 | 88 | 1010.6 |
| 20260509120517 | 69 | 282 | 0.9 | 5.2 | 0.00 | 0.04 | 0.00 | 90 | 1010.5 |
| 20260509115517 | 69 | 239 | 0.9 | 4.3 | 0.00 | 0.04 | 0.00 | 89 | 1010.4 |
| 20260509114517 | 69 | 159 | 0.0 | 0.9 | 0.00 | 0.04 | 0.00 | 88 | 1010.3 |
| 20260509113518 | 70 | 53 | 0.0 | 0.9 | 0.00 | 0.04 | 0.00 | 87 | 1010.2 |
| 20260509112518 | 71 | 224 | 1.7 | 1.7 | 0.00 | 0.04 | 0.00 | 86 | 1010.0 |
| 20260509111518 | 71 | 223 | 1.7 | 2.6 | 0.00 | 0.04 | 0.00 | 85 | 1009.9 |
| 20260509110518 | 72 | 222 | 1.7 | 3.5 | 0.00 | 0.04 | 0.00 | 84 | 1009.8 |
| 20260509105516 | 72 | 225 | 1.7 | 2.6 | 0.00 | 0.04 | 0.00 | 83 | 1009.7 |
| 20260509104516 | 72 | 223 | 1.7 | 3.5 | 0.00 | 0.04 | 0.00 | 82 | 1009.6 |
| 20260509103516 | 72 | 46 | 0.9 | 0.9 | 0.00 | 0.04 | 0.00 | 82 | 1009.7 |
| 20260509102516 | 72 | 46 | 0.9 | 0.9 | 0.00 | 0.04 | 0.00 | 85 | 1009.6 |
| 20260509101516 | 72 | 46 | 0.9 | 1.7 | 0.00 | 0.04 | 0.00 | 88 | 1009.6 |
| 20260509100516 | 71 | 49 | 0.9 | 1.7 | 0.00 | 0.04 | 0.00 | 89 | 1009.6 |
| 20260509095516 | 71 | 203 | 2.6 | 7.0 | 0.00 | 0.04 | 0.00 | 90 | 1009.2 |
| 20260509094516 | 71 | 221 | 3.5 | 8.7 | 0.00 | 0.04 | 0.00 | 90 | 1007.6 |
| 20260509093517 | 71 | 221 | 4.3 | 8.7 | 0.00 | 0.04 | 0.00 | 90 | 1007.2 |
| 20260509092517 | 71 | 222 | 3.5 | 6.1 | 0.00 | 0.04 | 0.00 | 90 | 1006.9 |
| 20260509091537 | 71 | 221 | 5.2 | 7.8 | 0.00 | 0.04 | 0.00 | 90 | 1007.0 |
| 20260509090517 | 71 | 222 | 4.3 | 7.8 | 0.00 | 0.04 | 0.00 | 90 | 1007.2 |
| 20260509085517 | 71 | 222 | 5.2 | 9.6 | 0.00 | 0.04 | 0.00 | 90 | 1007.3 |
| 20260509084517 | 71 | 223 | 6.1 | 8.7 | 0.00 | 0.04 | 0.00 | 90 | 1007.4 |
| 20260509083518 | 70 | 221 | 5.2 | 9.6 | 0.00 | 0.04 | 0.00 | 91 | 1007.4 |
| 20260509082518 | 70 | 218 | 2.6 | 6.1 | 0.00 | 0.04 | 0.00 | 92 | 1008.1 |
| 20260509081518 | 70 | 49 | 1.7 | 2.6 | 0.00 | 0.04 | 0.00 | 91 | 1008.7 |
| 20260509080518 | 70 | 63 | 1.7 | 3.5 | 0.00 | 0.04 | 0.00 | 91 | 1009.1 |
| 20260509075616 | 70 | 221 | 1.7 | 3.5 | 0.00 | 0.04 | 0.00 | 90 | 1009.7 |
| 20260509074516 | 71 | 221 | 2.6 | 4.3 | 0.00 | 0.04 | 0.00 | 89 | 1010.3 |
| 20260509073516 | 71 | 191 | 1.7 | 3.5 | 0.00 | 0.04 | 0.00 | 89 | 1010.6 |
| 20260509072556 | 71 | 54 | 0.9 | 1.7 | 0.00 | 0.04 | 0.00 | 89 | 1011.1 |
| 20260509071617 | 71 | 49 | 0.9 | 1.7 | 0.00 | 0.04 | 0.00 | 89 | 1011.5 |
| 20260509070536 | 71 | 50 | 0.9 | 1.7 | 0.00 | 0.04 | 0.00 | 91 | 1011.8 |
| 20260509065557 | 71 | 46 | 0.9 | 0.9 | 0.00 | 0.04 | 0.00 | 91 | 1011.7 |
| 20260509064537 | 70 | 45 | 0.9 | 0.9 | 0.00 | 0.04 | 0.00 | 92 | 1011.6 |
| 20260509063517 | 70 | 45 | 0.9 | 0.9 | 0.00 | 0.04 | 0.00 | 91 | 1011.4 |
| 20260509062517 | 70 | 49 | 0.9 | 0.9 | 0.00 | 0.04 | 0.00 | 92 | 1011.5 |
| 20260509061517 | 70 | 47 | 0.9 | 0.9 | 0.00 | 0.04 | 0.00 | 92 | 1011.6 |
| 20260509060517 | 70 | 46 | 0.9 | 1.7 | 0.00 | 0.04 | 0.00 | 91 | 1011.4 |
| 20260509055517 | 70 | 47 | 0.9 | 0.9 | 0.00 | 0.04 | 0.00 | 91 | 1011.6 |
| 20260509054518 | 70 | 47 | 0.9 | 0.9 | 0.00 | 0.04 | 0.00 | 91 | 1011.6 |
| 20260509053518 | 70 | 47 | 0.9 | 0.9 | 0.00 | 0.04 | 0.00 | 90 | 1011.5 |
| 20260509052518 | 70 | 46 | 0.9 | 0.9 | 0.00 | 0.04 | 0.00 | 90 | 1010.7 |
| 20260509051518 | 71 | 47 | 0.9 | 0.9 | 0.00 | 0.04 | 0.00 | 89 | 1010.7 |
| 20260509050535 | 71 | 223 | 0.9 | 1.7 | 0.00 | 0.04 | 0.00 | 89 | 1010.6 |
| 20260509045536 | 71 | 178 | 0.9 | 2.6 | 0.00 | 0.04 | 0.04 | 88 | 1010.5 |
| 20260509044516 | 71 | 223 | 0.9 | 1.7 | 0.00 | 0.04 | 0.04 | 88 | 1010.6 |
| 20260509043516 | 72 | 225 | 0.9 | 1.7 | 0.00 | 0.04 | 0.04 | 87 | 1010.7 |
| 20260509042516 | 72 | 223 | 0.9 | 0.9 | 0.00 | 0.04 | 0.04 | 86 | 1010.8 |
| 20260509041516 | 72 | 46 | 0.0 | 0.9 | 0.00 | 0.04 | 0.04 | 85 | 1011.0 |
| 20260509040516 | 72 | 46 | 0.9 | 0.9 | 0.00 | 0.04 | 0.04 | 85 | 1010.9 |
| 20260509035517 | 72 | 46 | 0.9 | 1.7 | 0.00 | 0.04 | 0.04 | 85 | 1010.7 |
| 20260509034517 | 73 | 140 | 0.9 | 2.6 | 0.00 | 0.04 | 0.04 | 84 | 1010.2 |
| 20260509033517 | 73 | 219 | 1.7 | 3.5 | 0.00 | 0.04 | 0.04 | 84 | 1010.2 |
| 20260509032517 | 73 | 173 | 0.9 | 3.5 | 0.00 | 0.04 | 0.04 | 83 | 1009.9 |
| 20260509031517 | 73 | 215 | 1.7 | 3.5 | 0.00 | 0.04 | 0.04 | 82 | 1009.7 |
| 20260509030517 | 73 | 209 | 1.7 | 2.6 | 0.00 | 0.04 | 0.04 | 82 | 1009.8 |
| 20260509025518 | 73 | 142 | 0.9 | 1.7 | 0.00 | 0.04 | 0.04 | 82 | 1009.5 |
| 20260509024517 | 73 | 154 | 0.9 | 3.5 | 0.00 | 0.04 | 0.04 | 82 | 1009.1 |
| 20260509023518 | 74 | 212 | 1.7 | 3.5 | 0.00 | 0.04 | 0.04 | 81 | 1009.0 |
| 20260509022538 | 74 | 214 | 0.9 | 1.7 | 0.00 | 0.04 | 0.04 | 81 | 1009.2 |
| 20260509021518 | 74 | 216 | 0.9 | 2.6 | 0.00 | 0.04 | 0.04 | 81 | 1009.2 |
| 20260509020515 | 74 | 159 | 0.9 | 0.9 | 0.00 | 0.04 | 0.04 | 80 | 1009.2 |
| 20260509015516 | 74 | 49 | 0.9 | 0.9 | 0.00 | 0.04 | 0.04 | 80 | 1009.3 |
| 20260509014536 | 74 | 49 | 0.9 | 0.9 | 0.00 | 0.04 | 0.04 | 80 | 1009.3 |
| 20260509013516 | 74 | 51 | 0.9 | 0.9 | 0.00 | 0.04 | 0.04 | 79 | 1009.1 |
| 20260509012516 | 74 | 46 | 0.9 | 0.9 | 0.00 | 0.04 | 0.04 | 79 | 1009.1 |
| 20260509011517 | 74 | 47 | 0.9 | 0.9 | 0.00 | 0.04 | 0.04 | 79 | 1008.9 |
| 20260509010517 | 74 | 222 | 0.9 | 1.7 | 0.00 | 0.04 | 0.04 | 79 | 1008.8 |
| 20260509005537 | 74 | 222 | 0.9 | 1.7 | 0.00 | 0.04 | 0.04 | 79 | 1008.6 |
| 20260509004517 | 74 | 222 | 1.7 | 2.6 | 0.00 | 0.04 | 0.04 | 78 | 1008.5 |
| 20260509003538 | 74 | 138 | 0.9 | 3.5 | 0.00 | 0.04 | 0.04 | 78 | 1008.5 |
| 20260509002517 | 75 | 50 | 0.9 | 2.6 | 0.00 | 0.04 | 0.04 | 77 | 1008.5 |
| 20260509001518 | 75 | 221 | 1.7 | 3.5 | 0.00 | 0.04 | 0.04 | 77 | 1008.6 |
| 20260509000518 | 75 | 219 | 1.7 | 4.3 | 0.00 | 0.04 | 0.04 | 76 | 1008.7 |
| 20260508235518 | 75 | 199 | 0.9 | 6.1 | 0.00 | 0.04 | 0.04 | 76 | 1008.8 |
| 20260508234518 | 75 | 214 | 0.9 | 7.8 | 0.00 | 0.04 | 0.04 | 76 | 1008.8 |
| 20260508233515 | 75 | 217 | 1.7 | 5.2 | 0.00 | 0.04 | 0.04 | 75 | 1008.8 |
| 20260508232556 | 75 | 221 | 1.7 | 5.2 | 0.00 | 0.04 | 0.04 | 75 | 1008.8 |
| 20260508231516 | 76 | 219 | 1.7 | 4.3 | 0.00 | 0.04 | 0.04 | 73 | 1008.8 |
| 20260508230516 | 76 | 124 | 0.9 | 3.5 | 0.00 | 0.04 | 0.04 | 72 | 1008.7 |
| 20260508225516 | 75 | 224 | 1.7 | 5.2 | 0.00 | 0.04 | 0.04 | 74 | 1008.7 |
| 20260508224537 | 75 | 213 | 1.7 | 5.2 | 0.00 | 0.04 | 0.04 | 73 | 1008.7 |
| 20260508223516 | 75 | 207 | 1.7 | 6.1 | 0.00 | 0.04 | 0.04 | 73 | 1008.7 |
| 20260508222517 | 75 | 227 | 1.7 | 6.1 | 0.00 | 0.04 | 0.04 | 74 | 1008.8 |
| 20260508221517 | 75 | 189 | 1.7 | 4.3 | 0.00 | 0.04 | 0.04 | 72 | 1008.9 |
| 20260508220516 | 74 | 230 | 1.7 | 4.3 | 0.00 | 0.04 | 0.04 | 74 | 1009.0 |
| 20260508215557 | 73 | 226 | 1.7 | 4.3 | 0.00 | 0.04 | 0.04 | 73 | 1009.1 |
| 20260508214538 | 73 | 161 | 1.7 | 4.3 | 0.00 | 0.04 | 0.04 | 74 | 1009.3 |
| 20260508213517 | 72 | 218 | 1.7 | 6.1 | 0.00 | 0.04 | 0.04 | 76 | 1009.5 |
| 20260508212517 | 71 | 202 | 0.9 | 4.3 | 0.01 | 0.04 | 0.04 | 79 | 1009.6 |